Time,TemperatureF,DewpointF,PressureIn,WindDirection,WindDirectionDegrees,WindSpeedMPH,WindSpeedGustMPH,Humidity,HourlyPrecipIn,Conditions,Clouds,dailyrainin,SoftwareType,DateUTC
2013-05-19 00:01:00,58.8,58.6,30.33,WSW,249,3.0,25.8,99,3.44,,,0.00,VWS V13.01,2013-05-19 04:01:00,
2013-05-19 00:06:00,58.8,58.7,30.33,SW,214,1.6,25.8,100,3.44,,,0.00,VWS V13.01,2013-05-19 04:06:00,
2013-05-19 00:11:00,58.8,58.7,30.33,WNW,287,2.9,25.8,100,3.44,,,0.00,VWS V13.01,2013-05-19 04:11:00,
2013-05-19 00:16:00,58.5,58.5,30.33,SE,136,0.6,25.8,100,3.44,,,0.00,VWS V13.01,2013-05-19 04:16:00,
2013-05-19 00:21:00,58.4,58.4,30.33,West,267,1.1,25.8,100,3.44,,,0.00,VWS V13.01,2013-05-19 04:21:00,
2013-05-19 00:26:00,58.4,58.4,30.33,SSW,201,0.6,25.8,100,3.44,,,0.00,VWS V13.01,2013-05-19 04:26:00,
2013-05-19 00:31:00,58.1,58.1,30.33,SSE,156,0.0,25.8,100,3.44,,,0.00,VWS V13.01,2013-05-19 04:31:00,
2013-05-19 00:36:00,58.3,58.3,30.33,West,280,0.0,25.8,100,3.44,,,0.00,VWS V13.01,2013-05-19 04:36:00,
2013-05-19 00:41:00,58.2,58.2,30.33,SE,131,0.0,25.8,100,3.45,,,0.01,VWS V13.01,2013-05-19 04:41:00,
2013-05-19 00:46:00,58.2,58.2,30.33,ESE,120,4.3,25.8,100,3.45,,,0.01,VWS V13.01,2013-05-19 04:46:00,
2013-05-19 00:51:00,58.2,58.2,30.33,South,170,0.0,25.8,100,3.46,,,0.02,VWS V13.01,2013-05-19 04:51:00,
2013-05-19 00:56:00,58.1,58.1,30.33,South,172,0.6,25.8,100,3.46,,,0.02,VWS V13.01,2013-05-19 04:56:00,
2013-05-19 01:01:00,58.0,58.0,30.33,ESE,122,1.6,25.8,100,3.46,,,0.02,VWS V13.01,2013-05-19 05:01:00,
2013-05-19 01:05:00,58.1,58.1,30.33,West,273,0.0,25.8,100,3.47,,,0.03,VWS V13.01,2013-05-19 05:05:00,
2013-05-19 01:10:00,57.7,57.7,30.33,West,273,0.0,25.8,100,3.47,,,0.03,VWS V13.01,2013-05-19 05:10:00,
2013-05-19 01:15:00,57.9,57.9,30.33,South,191,0.0,25.8,100,3.48,,,0.04,VWS V13.01,2013-05-19 05:15:00,
2013-05-19 01:20:00,57.9,57.9,30.33,South,174,0.7,25.8,100,3.49,,,0.05,VWS V13.01,2013-05-19 05:20:00,
2013-05-19 01:25:00,57.7,57.7,30.32,SW,229,5.6,25.8,100,3.50,,,0.06,VWS V13.01,2013-05-19 05:25:00,
2013-05-19 01:30:00,57.7,57.7,30.32,SSE,152,3.0,25.8,100,3.50,,,0.06,VWS V13.01,2013-05-19 05:30:00,
2013-05-19 01:35:00,57.6,57.6,30.32,South,186,3.0,25.8,100,3.50,,,0.06,VWS V13.01,2013-05-19 05:35:00,
2013-05-19 01:40:00,57.2,57.2,30.32,South,187,2.2,25.8,100,3.51,,,0.07,VWS V13.01,2013-05-19 05:40:00,
2013-05-19 01:45:00,57.5,57.5,30.32,NNE,25,0.0,25.8,100,3.51,,,0.07,VWS V13.01,2013-05-19 05:45:00,
2013-05-19 01:50:00,57.4,57.4,30.32,SSE,149,0.9,25.8,100,3.51,,,0.07,VWS V13.01,2013-05-19 05:50:00,
2013-05-19 01:55:00,57.3,57.3,30.32,SW,218,2.2,25.8,100,3.51,,,0.07,VWS V13.01,2013-05-19 05:55:00,
2013-05-19 02:00:00,57.4,57.4,30.32,ESE,122,0.0,25.8,100,3.52,,,0.08,VWS V13.01,2013-05-19 06:00:00,
2013-05-19 02:05:00,57.1,57.1,30.32,South,170,2.4,25.8,100,3.52,,,0.08,VWS V13.01,2013-05-19 06:05:00,
2013-05-19 02:10:00,57.3,57.3,30.31,South,170,0.6,25.8,100,3.52,,,0.08,VWS V13.01,2013-05-19 06:10:00,
2013-05-19 02:15:00,57.0,57.0,30.31,SSE,152,0.0,25.8,100,3.52,,,0.08,VWS V13.01,2013-05-19 06:15:00,
2013-05-19 02:20:00,57.0,57.0,30.31,SW,228,2.0,25.8,100,3.52,,,0.08,VWS V13.01,2013-05-19 06:20:00,
2013-05-19 02:25:00,57.0,57.0,30.31,South,181,2.2,25.8,100,3.52,,,0.08,VWS V13.01,2013-05-19 06:25:00,
2013-05-19 02:30:00,57.0,57.0,30.31,East,90,0.0,25.8,100,3.52,,,0.08,VWS V13.01,2013-05-19 06:30:00,
2013-05-19 02:35:00,57.0,57.0,30.31,ESE,121,0.0,25.8,100,3.52,,,0.08,VWS V13.01,2013-05-19 06:35:00,
2013-05-19 02:40:00,56.8,56.8,30.31,ESE,118,2.7,25.8,100,3.52,,,0.08,VWS V13.01,2013-05-19 06:40:00,
2013-05-19 02:45:00,56.6,56.6,30.31,South,174,1.1,25.8,100,3.52,,,0.08,VWS V13.01,2013-05-19 06:45:00,
2013-05-19 02:50:00,56.7,56.7,30.31,SE,142,2.0,25.8,100,3.52,,,0.08,VWS V13.01,2013-05-19 06:50:00,
2013-05-19 02:55:00,56.6,56.6,30.30,SW,217,0.0,25.8,100,3.52,,,0.08,VWS V13.01,2013-05-19 06:55:00,
2013-05-19 03:00:00,56.5,56.5,30.31,SE,125,3.4,25.8,100,3.52,,,0.08,VWS V13.01,2013-05-19 07:00:00,
2013-05-19 03:05:00,56.4,56.4,30.31,ESE,115,0.0,25.8,100,3.52,,,0.08,VWS V13.01,2013-05-19 07:05:00,
2013-05-19 03:10:00,56.5,56.5,30.31,SE,142,0.0,25.8,100,3.52,,,0.08,VWS V13.01,2013-05-19 07:10:00,
2013-05-19 03:15:00,56.4,56.4,30.31,SSW,198,0.9,25.8,100,3.52,,,0.08,VWS V13.01,2013-05-19 07:15:00,
2013-05-19 03:20:00,56.4,56.4,30.31,SSE,166,0.0,25.8,100,3.52,,,0.08,VWS V13.01,2013-05-19 07:20:00,
2013-05-19 03:25:00,56.3,56.3,30.31,SSE,166,0.0,25.8,100,3.52,,,0.08,VWS V13.01,2013-05-19 07:25:00,
2013-05-19 03:30:00,56.4,56.4,30.31,ESE,110,1.0,25.8,100,3.52,,,0.08,VWS V13.01,2013-05-19 07:30:00,
2013-05-19 03:35:00,56.3,56.3,30.30,ESE,121,0.0,25.8,100,3.52,,,0.08,VWS V13.01,2013-05-19 07:35:00,
2013-05-19 03:40:00,56.4,56.4,30.30,ESE,114,0.4,25.8,100,3.52,,,0.08,VWS V13.01,2013-05-19 07:40:00,
2013-05-19 03:45:00,56.5,56.5,30.30,SE,131,3.2,25.8,100,3.53,,,0.09,VWS V13.01,2013-05-19 07:45:00,
2013-05-19 03:50:00,56.3,56.3,30.30,ESE,108,1.6,25.8,100,3.53,,,0.09,VWS V13.01,2013-05-19 07:50:00,
2013-05-19 03:55:00,56.4,56.4,30.30,ESE,122,0.6,25.8,100,3.53,,,0.09,VWS V13.01,2013-05-19 07:55:00,
2013-05-19 04:00:00,56.5,56.5,30.30,SW,218,0.0,25.8,100,3.53,,,0.09,VWS V13.01,2013-05-19 08:00:00,
2013-05-19 04:05:00,56.6,56.6,30.30,South,180,2.9,25.8,100,3.53,,,0.09,VWS V13.01,2013-05-19 08:05:00,
2013-05-19 04:10:00,56.6,56.6,30.31,SE,131,0.9,25.8,100,3.53,,,0.09,VWS V13.01,2013-05-19 08:10:00,
2013-05-19 04:15:00,56.6,56.6,30.31,SE,127,0.0,25.8,100,3.53,,,0.09,VWS V13.01,2013-05-19 08:15:00,
2013-05-19 04:20:00,56.5,56.5,30.30,SSE,149,1.1,25.8,100,3.54,,,0.10,VWS V13.01,2013-05-19 08:20:00,
2013-05-19 04:25:00,56.7,56.7,30.31,SSE,155,0.0,25.8,100,3.55,,,0.11,VWS V13.01,2013-05-19 08:25:00,
2013-05-19 04:30:00,56.6,56.6,30.30,East,98,0.0,25.8,100,3.55,,,0.11,VWS V13.01,2013-05-19 08:30:00,
2013-05-19 04:35:00,56.5,56.5,30.30,South,188,0.0,25.8,100,3.55,,,0.11,VWS V13.01,2013-05-19 08:35:00,
2013-05-19 04:40:00,56.5,56.5,30.30,SE,138,1.2,25.8,100,3.55,,,0.11,VWS V13.01,2013-05-19 08:40:00,
2013-05-19 04:45:00,56.6,56.6,30.30,ENE,58,0.0,25.8,100,3.55,,,0.11,VWS V13.01,2013-05-19 08:45:00,
2013-05-19 04:50:00,56.5,56.5,30.30,SE,125,1.1,25.8,100,3.56,,,0.12,VWS V13.01,2013-05-19 08:50:00,
2013-05-19 04:55:00,56.6,56.6,30.30,SE,146,2.9,25.8,100,3.56,,,0.12,VWS V13.01,2013-05-19 08:55:00,
2013-05-19 05:00:00,56.7,56.7,30.30,ESE,118,7.6,25.8,100,3.56,,,0.12,VWS V13.01,2013-05-19 09:00:00,
2013-05-19 05:05:00,56.3,56.3,30.30,SSW,210,1.4,25.8,100,3.56,,,0.12,VWS V13.01,2013-05-19 09:05:00,
2013-05-19 05:10:00,56.4,56.4,30.30,South,190,5.3,25.8,100,3.56,,,0.12,VWS V13.01,2013-05-19 09:10:00,
2013-05-19 05:15:00,56.3,56.3,30.30,ESE,118,0.0,25.8,100,3.56,,,0.12,VWS V13.01,2013-05-19 09:15:00,
2013-05-19 05:20:00,56.6,56.6,30.30,ESE,104,2.2,25.8,100,3.56,,,0.12,VWS V13.01,2013-05-19 09:20:00,
2013-05-19 05:25:00,56.3,56.3,30.30,ESE,115,0.0,25.8,100,3.56,,,0.12,VWS V13.01,2013-05-19 09:25:00,
2013-05-19 05:30:00,56.2,56.2,30.30,ENE,69,0.0,25.8,100,3.56,,,0.12,VWS V13.01,2013-05-19 09:30:00,
2013-05-19 05:35:00,56.3,56.3,30.30,SSE,166,0.5,25.8,100,3.56,,,0.12,VWS V13.01,2013-05-19 09:35:00,
2013-05-19 05:40:00,56.1,56.1,30.30,ESE,108,1.3,25.8,100,3.56,,,0.12,VWS V13.01,2013-05-19 09:40:00,
2013-05-19 05:45:00,56.3,56.3,30.31,SSE,156,4.2,25.8,100,3.56,,,0.12,VWS V13.01,2013-05-19 09:45:00,
2013-05-19 05:50:00,56.2,56.2,30.31,SE,129,3.4,25.8,100,3.56,,,0.12,VWS V13.01,2013-05-19 09:50:00,
2013-05-19 05:55:00,56.3,56.3,30.31,SSE,148,1.3,25.8,100,3.56,,,0.12,VWS V13.01,2013-05-19 09:55:00,
2013-05-19 06:00:00,56.4,56.4,30.31,SSE,158,2.6,25.8,100,3.56,,,0.12,VWS V13.01,2013-05-19 10:00:00,
2013-05-19 06:05:00,56.3,56.3,30.31,South,174,2.9,25.8,100,3.56,,,0.12,VWS V13.01,2013-05-19 10:05:00,
2013-05-19 06:10:00,56.4,56.4,30.31,SE,141,2.7,25.8,100,3.56,,,0.12,VWS V13.01,2013-05-19 10:10:00,
2013-05-19 06:15:00,56.5,56.5,30.31,SE,128,0.0,25.8,100,3.56,,,0.12,VWS V13.01,2013-05-19 10:15:00,
2013-05-19 06:20:00,56.6,56.6,30.31,SSW,193,0.0,25.8,100,3.56,,,0.12,VWS V13.01,2013-05-19 10:20:00,
2013-05-19 06:25:00,56.5,56.5,30.31,SW,224,0.0,25.8,100,3.56,,,0.12,VWS V13.01,2013-05-19 10:25:00,
2013-05-19 06:30:00,56.6,56.6,30.32,South,190,0.0,25.8,100,3.56,,,0.12,VWS V13.01,2013-05-19 10:30:00,
2013-05-19 06:35:00,56.6,56.6,30.32,SE,143,4.8,25.8,100,3.56,,,0.12,VWS V13.01,2013-05-19 10:35:00,
2013-05-19 06:40:00,56.7,56.7,30.32,SE,124,0.0,25.8,100,3.56,,,0.12,VWS V13.01,2013-05-19 10:40:00,
2013-05-19 06:45:00,56.8,56.8,30.32,South,172,2.5,25.8,100,3.56,,,0.12,VWS V13.01,2013-05-19 10:45:00,
2013-05-19 06:50:00,56.8,56.8,30.32,SSE,159,0.0,25.8,100,3.57,,,0.13,VWS V13.01,2013-05-19 10:50:00,
2013-05-19 06:55:00,56.9,56.9,30.32,SSE,153,0.0,25.8,100,3.57,,,0.13,VWS V13.01,2013-05-19 10:55:00,
2013-05-19 07:00:00,56.9,56.9,30.32,SE,145,1.9,25.8,100,3.57,,,0.13,VWS V13.01,2013-05-19 11:00:00,
2013-05-19 07:05:00,57.1,57.1,30.32,SSE,148,0.0,25.8,100,3.57,,,0.13,VWS V13.01,2013-05-19 11:05:00,
2013-05-19 07:10:00,57.1,57.1,30.32,SSE,162,2.2,25.8,100,3.57,,,0.13,VWS V13.01,2013-05-19 11:10:00,
2013-05-19 07:15:00,57.1,57.1,30.32,SSE,160,2.7,25.8,100,3.57,,,0.13,VWS V13.01,2013-05-19 11:15:00,
2013-05-19 07:19:00,57.1,57.1,30.32,WSW,238,2.9,25.8,100,3.57,,,0.13,VWS V13.01,2013-05-19 11:19:00,
2013-05-19 07:24:00,57.1,57.1,30.31,ESE,121,0.4,25.8,100,3.57,,,0.13,VWS V13.01,2013-05-19 11:24:00,
2013-05-19 07:29:00,57.1,57.1,30.31,East,101,0.0,25.8,100,3.57,,,0.13,VWS V13.01,2013-05-19 11:29:00,
2013-05-19 07:34:00,57.2,57.2,30.32,SSE,163,4.5,25.8,100,3.57,,,0.13,VWS V13.01,2013-05-19 11:34:00,
2013-05-19 07:39:00,57.4,57.4,30.32,SSE,159,0.0,25.8,100,3.57,,,0.13,VWS V13.01,2013-05-19 11:39:00,
2013-05-19 07:44:00,57.3,57.3,30.32,East,87,0.0,25.8,100,3.57,,,0.13,VWS V13.01,2013-05-19 11:44:00,
2013-05-19 07:49:00,57.5,57.5,30.32,West,277,0.0,25.8,100,3.57,,,0.13,VWS V13.01,2013-05-19 11:49:00,
2013-05-19 07:54:00,57.3,57.3,30.32,South,184,0.0,25.8,100,3.57,,,0.13,VWS V13.01,2013-05-19 11:54:00,
2013-05-19 07:59:00,57.4,57.4,30.32,SSE,152,0.0,25.8,100,3.57,,,0.13,VWS V13.01,2013-05-19 11:59:00,
2013-05-19 08:04:00,57.5,57.5,30.32,ENE,59,0.0,25.8,100,3.57,,,0.13,VWS V13.01,2013-05-19 12:04:00,
2013-05-19 08:09:00,57.4,57.4,30.33,SE,145,0.0,25.8,100,3.57,,,0.13,VWS V13.01,2013-05-19 12:09:00,
2013-05-19 08:14:00,57.5,57.5,30.33,East,94,0.0,25.8,100,3.57,,,0.13,VWS V13.01,2013-05-19 12:14:00,
2013-05-19 08:19:00,57.3,57.3,30.33,East,94,0.0,25.8,100,3.57,,,0.13,VWS V13.01,2013-05-19 12:19:00,
2013-05-19 08:24:00,57.4,57.4,30.33,ESE,121,2.2,25.8,100,3.57,,,0.13,VWS V13.01,2013-05-19 12:24:00,
2013-05-19 08:29:00,57.3,57.3,30.33,SE,128,8.1,25.8,100,3.57,,,0.13,VWS V13.01,2013-05-19 12:29:00,
2013-05-19 08:34:00,57.4,57.4,30.33,East,83,0.0,25.8,100,3.57,,,0.13,VWS V13.01,2013-05-19 12:34:00,
2013-05-19 08:39:00,57.4,57.4,30.33,ESE,120,0.0,25.8,100,3.57,,,0.13,VWS V13.01,2013-05-19 12:39:00,
2013-05-19 08:44:00,57.4,57.4,30.33,SSE,149,0.0,25.8,100,3.58,,,0.14,VWS V13.01,2013-05-19 12:44:00,
2013-05-19 08:49:00,57.6,57.6,30.33,SSE,149,0.0,25.8,100,3.58,,,0.14,VWS V13.01,2013-05-19 12:49:00,
2013-05-19 08:54:00,57.7,57.7,30.33,SE,125,0.0,25.8,100,3.58,,,0.14,VWS V13.01,2013-05-19 12:54:00,
2013-05-19 08:59:00,57.4,57.4,30.33,SE,132,0.0,25.8,100,3.58,,,0.15,VWS V13.01,2013-05-19 12:59:00,
2013-05-19 09:04:00,57.5,57.5,30.33,SE,132,0.0,25.8,100,3.59,,,0.15,VWS V13.01,2013-05-19 13:04:00,
2013-05-19 09:09:00,57.5,57.5,30.34,East,98,0.2,25.8,100,3.60,,,0.16,VWS V13.01,2013-05-19 13:09:00,
2013-05-19 09:14:00,57.5,57.5,30.34,South,187,0.0,25.8,100,3.61,,,0.17,VWS V13.01,2013-05-19 13:14:00,
2013-05-19 09:19:00,57.6,57.6,30.34,ESE,110,0.0,25.8,100,3.61,,,0.18,VWS V13.01,2013-05-19 13:19:00,
2013-05-19 09:24:00,57.4,57.4,30.33,ESE,110,0.0,25.8,100,3.62,,,0.18,VWS V13.01,2013-05-19 13:24:00,
2013-05-19 09:29:00,57.4,57.4,30.33,SSE,152,2.7,25.8,100,3.63,,,0.19,VWS V13.01,2013-05-19 13:29:00,
2013-05-19 09:34:00,57.5,57.5,30.33,SSW,204,0.0,25.8,100,3.64,,,0.20,VWS V13.01,2013-05-19 13:34:00,
2013-05-19 09:39:00,57.6,57.6,30.33,SE,143,0.0,25.8,100,3.65,,,0.21,VWS V13.01,2013-05-19 13:39:00,
2013-05-19 09:44:00,57.4,57.4,30.33,ESE,117,0.0,25.8,100,3.65,,,0.21,VWS V13.01,2013-05-19 13:44:00,
2013-05-19 09:49:00,57.4,57.4,30.33,SW,236,0.6,25.8,100,3.66,,,0.22,VWS V13.01,2013-05-19 13:49:00,
2013-05-19 09:54:00,57.4,57.4,30.33,SE,132,0.0,25.8,100,3.67,,,0.23,VWS V13.01,2013-05-19 13:54:00,
2013-05-19 09:59:00,57.4,57.4,30.34,SW,235,7.5,25.8,100,3.68,,,0.24,VWS V13.01,2013-05-19 13:59:00,
2013-05-19 10:04:00,57.5,57.5,30.34,SSE,166,0.0,25.8,100,3.69,,,0.25,VWS V13.01,2013-05-19 14:04:00,
2013-05-19 10:09:00,57.4,57.4,30.33,ESE,122,0.0,25.8,100,3.69,,,0.25,VWS V13.01,2013-05-19 14:09:00,
2013-05-19 10:14:00,57.6,57.6,30.33,South,179,0.0,25.8,100,3.70,,,0.26,VWS V13.01,2013-05-19 14:14:00,
2013-05-19 10:19:00,57.5,57.5,30.33,SSE,150,0.0,25.8,100,3.71,,,0.27,VWS V13.01,2013-05-19 14:19:00,
2013-05-19 10:24:00,57.7,57.7,30.33,SSE,156,2.1,25.8,100,3.71,,,0.28,VWS V13.01,2013-05-19 14:24:00,
2013-05-19 10:29:00,57.5,57.5,30.33,ESE,115,3.2,25.8,100,3.72,,,0.28,VWS V13.01,2013-05-19 14:29:00,
2013-05-19 10:34:00,57.4,57.4,30.33,SE,134,0.0,25.8,100,3.72,,,0.28,VWS V13.01,2013-05-19 14:34:00,
2013-05-19 10:39:00,57.3,57.3,30.33,SSW,193,0.0,25.8,100,3.73,,,0.29,VWS V13.01,2013-05-19 14:39:00,
2013-05-19 10:44:00,57.4,57.4,30.33,South,190,0.0,25.8,100,3.73,,,0.29,VWS V13.01,2013-05-19 14:44:00,
2013-05-19 10:49:00,57.4,57.4,30.33,South,179,0.0,25.8,100,3.73,,,0.29,VWS V13.01,2013-05-19 14:49:00,
2013-05-19 10:54:00,57.2,57.2,30.33,WSW,253,0.0,25.8,100,3.73,,,0.29,VWS V13.01,2013-05-19 14:54:00,
2013-05-19 10:59:00,57.5,57.5,30.33,SSW,207,3.5,25.8,100,3.74,,,0.30,VWS V13.01,2013-05-19 14:59:00,
2013-05-19 11:04:00,57.2,57.2,30.33,NE,56,0.0,25.8,100,3.74,,,0.30,VWS V13.01,2013-05-19 15:04:00,
2013-05-19 11:09:00,57.2,57.2,30.33,SSE,158,2.0,25.8,100,3.74,,,0.30,VWS V13.01,2013-05-19 15:09:00,
2013-05-19 11:14:00,57.2,57.2,30.33,SE,128,4.5,25.8,100,3.74,,,0.30,VWS V13.01,2013-05-19 15:14:00,
2013-05-19 11:19:00,57.0,57.0,30.33,South,184,7.8,25.8,100,3.74,,,0.30,VWS V13.01,2013-05-19 15:19:00,
2013-05-19 11:24:00,57.0,57.0,30.33,SE,132,1.6,25.8,100,3.75,,,0.31,VWS V13.01,2013-05-19 15:24:00,
2013-05-19 11:29:00,57.0,57.0,30.33,SSE,158,4.6,25.8,100,3.75,,,0.31,VWS V13.01,2013-05-19 15:29:00,
2013-05-19 11:34:00,57.1,57.1,30.33,SSE,159,0.0,25.8,100,3.75,,,0.31,VWS V13.01,2013-05-19 15:34:00,
2013-05-19 11:39:00,57.0,57.0,30.33,SE,139,7.0,25.8,100,3.75,,,0.31,VWS V13.01,2013-05-19 15:39:00,
2013-05-19 11:44:00,57.0,57.0,30.33,SSE,165,0.0,25.8,100,3.75,,,0.31,VWS V13.01,2013-05-19 15:44:00,
2013-05-19 11:49:00,57.2,57.2,30.33,South,172,5.7,25.8,100,3.75,,,0.31,VWS V13.01,2013-05-19 15:49:00,
2013-05-19 11:54:00,57.2,57.2,30.32,ESE,114,2.8,25.8,100,3.76,,,0.32,VWS V13.01,2013-05-19 15:54:00,
2013-05-19 11:59:00,57.2,57.2,30.32,ESE,111,5.3,25.8,100,3.76,,,0.32,VWS V13.01,2013-05-19 15:59:00,
2013-05-19 12:04:00,57.3,57.3,30.32,SE,145,4.3,25.8,100,3.76,,,0.32,VWS V13.01,2013-05-19 16:04:00,
2013-05-19 12:09:00,57.2,57.2,30.32,ESE,104,1.3,25.8,100,3.77,,,0.33,VWS V13.01,2013-05-19 16:09:00,
2013-05-19 12:14:00,57.3,57.3,30.32,SSE,150,4.2,25.8,100,3.77,,,0.33,VWS V13.01,2013-05-19 16:14:00,
2013-05-19 12:19:00,57.4,57.4,30.32,SE,125,3.9,25.8,100,3.77,,,0.33,VWS V13.01,2013-05-19 16:19:00,
2013-05-19 12:24:00,57.3,57.3,30.32,SSW,198,0.0,25.8,100,3.78,,,0.34,VWS V13.01,2013-05-19 16:24:00,
2013-05-19 12:29:00,57.2,57.2,30.32,South,176,2.8,25.8,100,3.78,,,0.34,VWS V13.01,2013-05-19 16:29:00,
2013-05-19 12:34:00,57.4,57.4,30.32,SSE,155,2.0,25.8,100,3.78,,,0.34,VWS V13.01,2013-05-19 16:34:00,
2013-05-19 12:39:00,57.4,57.4,30.31,SE,127,7.0,25.8,100,3.79,,,0.35,VWS V13.01,2013-05-19 16:39:00,
2013-05-19 12:44:00,57.3,57.3,30.31,SSE,155,0.0,25.8,100,3.79,,,0.35,VWS V13.01,2013-05-19 16:44:00,
2013-05-19 12:49:00,57.3,57.3,30.31,East,100,2.7,25.8,100,3.79,,,0.35,VWS V13.01,2013-05-19 16:49:00,
2013-05-19 12:54:00,57.6,57.6,30.31,SE,132,3.7,25.8,100,3.80,,,0.36,VWS V13.01,2013-05-19 16:54:00,
2013-05-19 12:59:00,57.4,57.4,30.31,SSE,150,1.6,25.8,100,3.80,,,0.36,VWS V13.01,2013-05-19 16:59:00,
2013-05-19 13:04:00,57.2,57.2,30.31,ESE,108,6.3,25.8,100,3.81,,,0.37,VWS V13.01,2013-05-19 17:04:00,
2013-05-19 13:09:00,57.2,57.2,30.30,ESE,107,5.5,25.8,100,3.81,,,0.37,VWS V13.01,2013-05-19 17:09:00,
2013-05-19 13:13:00,57.1,57.1,30.30,SSE,156,1.8,25.8,100,3.81,,,0.37,VWS V13.01,2013-05-19 17:13:00,
2013-05-19 13:18:00,57.2,57.2,30.30,SSE,150,4.2,25.8,100,3.81,,,0.37,VWS V13.01,2013-05-19 17:18:00,
2013-05-19 13:23:00,57.3,57.3,30.30,NE,56,1.4,25.8,100,3.81,,,0.37,VWS V13.01,2013-05-19 17:23:00,
2013-05-19 13:28:00,57.1,57.1,30.29,SE,138,7.3,25.8,100,3.81,,,0.37,VWS V13.01,2013-05-19 17:28:00,
2013-05-19 13:33:00,57.2,57.2,30.29,SSE,148,4.2,25.8,100,3.81,,,0.37,VWS V13.01,2013-05-19 17:33:00,
2013-05-19 13:38:00,57.2,57.2,30.29,SE,134,0.0,25.8,100,3.82,,,0.38,VWS V13.01,2013-05-19 17:38:00,
2013-05-19 13:43:00,57.2,57.2,30.29,SSE,158,2.7,25.8,100,3.82,,,0.38,VWS V13.01,2013-05-19 17:43:00,
2013-05-19 13:48:00,57.1,57.1,30.29,SSE,150,2.0,25.8,100,3.82,,,0.38,VWS V13.01,2013-05-19 17:48:00,
2013-05-19 13:53:00,57.1,57.1,30.29,SE,127,0.0,25.8,100,3.82,,,0.38,VWS V13.01,2013-05-19 17:53:00,
2013-05-19 13:58:00,57.2,57.2,30.29,SE,124,5.6,25.8,100,3.82,,,0.38,VWS V13.01,2013-05-19 17:58:00,
2013-05-19 14:03:00,57.2,57.2,30.29,SSE,162,2.7,25.8,100,3.82,,,0.38,VWS V13.01,2013-05-19 18:03:00,
2013-05-19 14:08:00,57.1,57.1,30.29,SE,125,0.0,25.8,100,3.82,,,0.38,VWS V13.01,2013-05-19 18:08:00,
2013-05-19 14:13:00,57.1,57.1,30.28,ESE,110,0.0,25.8,100,3.82,,,0.38,VWS V13.01,2013-05-19 18:13:00,
2013-05-19 14:18:00,57.2,57.2,30.29,SSW,212,1.8,25.8,100,3.82,,,0.38,VWS V13.01,2013-05-19 18:18:00,
2013-05-19 14:23:00,57.1,57.1,30.28,SE,146,2.1,25.8,100,3.82,,,0.38,VWS V13.01,2013-05-19 18:23:00,
2013-05-19 14:28:00,57.1,57.1,30.28,SSE,152,2.4,25.8,100,3.82,,,0.38,VWS V13.01,2013-05-19 18:28:00,
2013-05-19 14:33:00,57.4,57.4,30.28,South,170,0.0,25.8,100,3.82,,,0.38,VWS V13.01,2013-05-19 18:33:00,
2013-05-19 14:38:00,57.4,57.4,30.28,SE,141,0.3,25.8,100,3.82,,,0.38,VWS V13.01,2013-05-19 18:38:00,
2013-05-19 14:43:00,57.2,57.2,30.28,East,97,2.2,25.8,100,3.82,,,0.38,VWS V13.01,2013-05-19 18:43:00,
2013-05-19 14:48:00,57.5,57.5,30.28,SE,128,0.9,25.8,100,3.82,,,0.38,VWS V13.01,2013-05-19 18:48:00,
2013-05-19 14:53:00,57.5,57.5,30.28,SE,139,0.0,25.8,100,3.83,,,0.39,VWS V13.01,2013-05-19 18:53:00,
2013-05-19 14:58:00,57.4,57.4,30.28,ESE,103,0.0,25.8,100,3.83,,,0.39,VWS V13.01,2013-05-19 18:58:00,
2013-05-19 15:03:00,57.3,57.3,30.28,SE,135,3.0,25.8,100,3.83,,,0.39,VWS V13.01,2013-05-19 19:03:00,
2013-05-19 15:08:00,57.3,57.3,30.27,East,90,0.0,25.8,100,3.83,,,0.39,VWS V13.01,2013-05-19 19:08:00,
2013-05-19 15:13:00,57.4,57.4,30.27,SE,134,0.0,25.8,100,3.83,,,0.39,VWS V13.01,2013-05-19 19:13:00,
2013-05-19 15:18:00,57.7,57.7,30.27,SSE,152,0.0,25.8,100,3.83,,,0.39,VWS V13.01,2013-05-19 19:18:00,
2013-05-19 15:23:00,57.6,57.6,30.27,ESE,114,0.0,25.8,100,3.83,,,0.39,VWS V13.01,2013-05-19 19:23:00,
2013-05-19 15:28:00,57.4,57.4,30.26,SSE,159,0.0,25.8,100,3.83,,,0.39,VWS V13.01,2013-05-19 19:28:00,
2013-05-19 15:33:00,57.4,57.4,30.26,ESE,108,0.0,25.8,100,3.83,,,0.39,VWS V13.01,2013-05-19 19:33:00,
2013-05-19 15:38:00,57.7,57.7,30.26,SE,127,1.1,25.8,100,3.84,,,0.40,VWS V13.01,2013-05-19 19:38:00,
2013-05-19 15:43:00,57.4,57.4,30.25,SE,132,0.0,25.8,100,3.84,,,0.40,VWS V13.01,2013-05-19 19:43:00,
2013-05-19 15:48:00,57.4,57.4,30.25,SE,132,0.0,25.8,100,3.84,,,0.40,VWS V13.01,2013-05-19 19:48:00,
2013-05-19 15:53:00,57.3,57.3,30.25,South,181,1.4,25.8,100,3.84,,,0.40,VWS V13.01,2013-05-19 19:53:00,
2013-05-19 15:58:00,57.2,57.2,30.25,ESE,118,0.4,25.8,100,3.84,,,0.40,VWS V13.01,2013-05-19 19:58:00,
2013-05-19 16:03:00,57.4,57.4,30.25,SE,125,0.0,25.8,100,3.84,,,0.40,VWS V13.01,2013-05-19 20:03:00,
2013-05-19 16:08:00,57.4,57.4,30.25,SW,228,0.6,25.8,100,3.85,,,0.41,VWS V13.01,2013-05-19 20:08:00,
2013-05-19 16:13:00,57.4,57.4,30.24,SE,129,0.0,25.8,100,3.85,,,0.41,VWS V13.01,2013-05-19 20:13:00,
2013-05-19 16:18:00,57.5,57.5,30.24,SSE,156,0.0,25.8,100,3.85,,,0.42,VWS V13.01,2013-05-19 20:18:00,
2013-05-19 16:23:00,57.3,57.3,30.24,ENE,62,0.0,25.8,100,3.86,,,0.42,VWS V13.01,2013-05-19 20:23:00,
2013-05-19 16:28:00,57.4,57.4,30.24,SW,236,0.0,25.8,100,3.86,,,0.42,VWS V13.01,2013-05-19 20:28:00,
2013-05-19 16:33:00,57.3,57.3,30.24,ESE,111,0.0,25.8,100,3.86,,,0.42,VWS V13.01,2013-05-19 20:33:00,
2013-05-19 16:38:00,57.4,57.4,30.24,ESE,111,0.0,25.8,100,3.86,,,0.42,VWS V13.01,2013-05-19 20:38:00,
2013-05-19 16:43:00,57.6,57.6,30.24,SSE,149,0.0,25.8,100,3.86,,,0.42,VWS V13.01,2013-05-19 20:43:00,
2013-05-19 16:48:00,57.5,57.5,30.24,SSE,148,0.0,25.8,100,3.87,,,0.43,VWS V13.01,2013-05-19 20:48:00,
2013-05-19 16:53:00,57.4,57.4,30.24,SSE,156,0.0,25.8,100,3.87,,,0.43,VWS V13.01,2013-05-19 20:53:00,
2013-05-19 16:58:00,57.2,57.2,30.24,SSE,163,2.9,25.8,100,3.87,,,0.43,VWS V13.01,2013-05-19 20:58:00,
2013-05-19 17:03:00,57.3,57.3,30.24,SSE,159,0.0,25.8,100,3.87,,,0.43,VWS V13.01,2013-05-19 21:03:00,
2013-05-19 17:08:00,57.1,57.1,30.24,East,89,0.5,25.8,100,3.87,,,0.43,VWS V13.01,2013-05-19 21:08:00,
2013-05-19 17:13:00,57.3,57.3,30.24,ESE,120,0.0,25.8,100,3.88,,,0.44,VWS V13.01,2013-05-19 21:13:00,
2013-05-19 17:18:00,57.4,57.4,30.23,SE,131,0.0,25.8,100,3.88,,,0.44,VWS V13.01,2013-05-19 21:18:00,
2013-05-19 17:23:00,57.3,57.3,30.24,SE,136,1.7,25.8,100,3.88,,,0.44,VWS V13.01,2013-05-19 21:23:00,
2013-05-19 17:28:00,57.3,57.3,30.23,SE,136,0.0,25.8,100,3.89,,,0.45,VWS V13.01,2013-05-19 21:28:00,
2013-05-19 17:33:00,57.3,57.3,30.23,South,170,0.4,25.8,100,3.89,,,0.45,VWS V13.01,2013-05-19 21:33:00,
2013-05-19 17:38:00,57.2,57.2,30.23,SE,141,0.0,25.8,100,3.89,,,0.45,VWS V13.01,2013-05-19 21:38:00,
2013-05-19 17:43:00,57.4,57.4,30.23,SE,141,0.0,25.8,100,3.90,,,0.46,VWS V13.01,2013-05-19 21:43:00,
2013-05-19 17:48:00,57.3,57.3,30.23,SSE,156,1.3,25.8,100,3.90,,,0.46,VWS V13.01,2013-05-19 21:48:00,
2013-05-19 17:53:00,57.3,57.3,30.23,South,176,0.0,25.8,100,3.90,,,0.46,VWS V13.01,2013-05-19 21:53:00,
2013-05-19 17:58:00,57.3,57.3,30.23,SSE,166,0.0,25.8,100,3.91,,,0.47,VWS V13.01,2013-05-19 21:58:00,
2013-05-19 18:03:00,57.2,57.2,30.23,SE,128,0.0,25.8,100,3.91,,,0.47,VWS V13.01,2013-05-19 22:03:00,
2013-05-19 18:08:00,57.3,57.3,30.23,SE,132,0.0,25.8,100,3.91,,,0.47,VWS V13.01,2013-05-19 22:08:00,
2013-05-19 18:13:00,57.2,57.2,30.23,East,97,0.0,25.8,100,3.92,,,0.48,VWS V13.01,2013-05-19 22:13:00,
2013-05-19 18:18:00,57.2,57.2,30.23,East,97,0.0,25.8,100,3.92,,,0.48,VWS V13.01,2013-05-19 22:18:00,
2013-05-19 18:23:00,57.2,57.2,30.23,East,97,0.0,25.8,100,3.93,,,0.49,VWS V13.01,2013-05-19 22:23:00,
2013-05-19 18:28:00,57.2,57.2,30.23,East,97,0.0,25.8,100,3.93,,,0.49,VWS V13.01,2013-05-19 22:28:00,
2013-05-19 18:33:00,57.4,57.4,30.23,SE,142,0.0,25.8,100,3.93,,,0.49,VWS V13.01,2013-05-19 22:33:00,
2013-05-19 18:38:00,57.4,57.4,30.23,SE,142,0.0,25.8,100,3.94,,,0.50,VWS V13.01,2013-05-19 22:38:00,
2013-05-19 18:43:00,57.5,57.5,30.23,SW,226,0.0,25.8,100,3.94,,,0.50,VWS V13.01,2013-05-19 22:43:00,
2013-05-19 18:48:00,57.5,57.5,30.23,SSE,163,0.0,25.8,100,3.94,,,0.50,VWS V13.01,2013-05-19 22:48:00,
2013-05-19 18:53:00,57.6,57.6,30.23,SSE,163,0.0,25.8,100,3.95,,,0.51,VWS V13.01,2013-05-19 22:53:00,
2013-05-19 18:58:00,57.8,57.8,30.23,SSE,163,0.0,25.8,100,3.95,,,0.51,VWS V13.01,2013-05-19 22:58:00,
2013-05-19 19:03:00,57.7,57.7,30.23,SSE,153,1.2,25.8,100,3.95,,,0.51,VWS V13.01,2013-05-19 23:03:00,
2013-05-19 19:08:00,57.9,57.9,30.23,SSE,153,0.0,25.8,100,3.95,,,0.51,VWS V13.01,2013-05-19 23:08:00,
2013-05-19 19:13:00,57.9,57.9,30.23,SSE,153,0.0,25.8,100,3.95,,,0.51,VWS V13.01,2013-05-19 23:13:00,
2013-05-19 19:17:00,58.1,58.1,30.23,SSE,153,0.0,25.8,100,3.96,,,0.52,VWS V13.01,2013-05-19 23:17:00,
2013-05-19 19:22:00,58.1,58.1,30.23,SSE,150,0.0,25.8,100,3.96,,,0.52,VWS V13.01,2013-05-19 23:22:00,
2013-05-19 19:27:00,58.1,58.1,30.23,SSE,150,0.0,25.8,100,3.96,,,0.52,VWS V13.01,2013-05-19 23:27:00,
2013-05-19 19:32:00,58.1,58.1,30.23,SSE,150,0.0,25.8,100,3.96,,,0.52,VWS V13.01,2013-05-19 23:32:00,
2013-05-19 19:37:00,58.1,58.1,30.23,SSE,150,0.0,25.8,100,3.96,,,0.52,VWS V13.01,2013-05-19 23:37:00,
2013-05-19 19:42:00,58.4,58.4,30.23,SSE,150,0.0,25.8,100,3.96,,,0.52,VWS V13.01,2013-05-19 23:42:00,
2013-05-19 19:47:00,58.3,58.3,30.23,SSE,150,0.0,25.8,100,3.96,,,0.52,VWS V13.01,2013-05-19 23:47:00,
2013-05-19 19:52:00,58.2,58.2,30.23,SSE,150,0.0,25.8,100,3.96,,,0.52,VWS V13.01,2013-05-19 23:52:00,
2013-05-19 19:57:00,58.2,58.2,30.23,SSE,150,0.0,25.8,100,3.96,,,0.52,VWS V13.01,2013-05-19 23:57:00,
2013-05-19 20:02:00,58.2,58.2,30.23,SSE,150,0.0,25.8,100,3.96,,,0.52,VWS V13.01,2013-05-20 00:02:00,
2013-05-19 20:07:00,58.4,58.4,30.23,SSE,163,0.0,25.8,100,3.96,,,0.52,VWS V13.01,2013-05-20 00:07:00,
2013-05-19 20:12:00,58.0,58.0,30.23,SSE,163,0.0,25.8,100,3.96,,,0.52,VWS V13.01,2013-05-20 00:12:00,
2013-05-19 20:17:00,58.1,58.1,30.23,SE,127,0.0,25.8,100,3.96,,,0.52,VWS V13.01,2013-05-20 00:17:00,
2013-05-19 20:22:00,58.2,58.2,30.22,SE,127,0.0,25.8,100,3.96,,,0.52,VWS V13.01,2013-05-20 00:22:00,
2013-05-19 20:27:00,58.0,58.0,30.22,SE,127,0.0,25.8,100,3.96,,,0.52,VWS V13.01,2013-05-20 00:27:00,
2013-05-19 20:32:00,58.3,58.3,30.22,SE,127,0.0,25.8,100,3.96,,,0.52,VWS V13.01,2013-05-20 00:32:00,
2013-05-19 20:37:00,58.2,58.2,30.22,SE,127,0.0,25.8,100,3.96,,,0.52,VWS V13.01,2013-05-20 00:37:00,
2013-05-19 20:42:00,58.2,58.2,30.21,SE,127,0.0,25.8,100,3.96,,,0.52,VWS V13.01,2013-05-20 00:42:00,
2013-05-19 20:47:00,58.1,58.1,30.21,SE,127,0.0,25.8,100,3.96,,,0.52,VWS V13.01,2013-05-20 00:47:00,
2013-05-19 20:52:00,58.1,58.1,30.20,SE,127,0.0,25.8,100,3.96,,,0.53,VWS V13.01,2013-05-20 00:52:00,
2013-05-19 20:57:00,58.1,58.1,30.20,SE,127,0.0,25.8,100,3.97,,,0.53,VWS V13.01,2013-05-20 00:57:00,
2013-05-19 21:02:00,58.0,58.0,30.20,SE,127,0.0,25.8,100,3.97,,,0.53,VWS V13.01,2013-05-20 01:02:00,
2013-05-19 21:07:00,58.2,58.2,30.20,SE,127,0.0,25.8,100,3.97,,,0.53,VWS V13.01,2013-05-20 01:07:00,
2013-05-19 21:12:00,58.0,58.0,30.20,SE,127,0.0,25.8,100,3.97,,,0.53,VWS V13.01,2013-05-20 01:12:00,
2013-05-19 21:17:00,58.1,58.1,30.20,SE,127,0.0,25.8,100,3.97,,,0.53,VWS V13.01,2013-05-20 01:17:00,
2013-05-19 21:22:00,58.1,58.1,30.19,SE,127,0.0,25.8,100,3.97,,,0.53,VWS V13.01,2013-05-20 01:22:00,
2013-05-19 21:27:00,58.3,58.3,30.19,SE,127,0.0,25.8,100,3.97,,,0.53,VWS V13.01,2013-05-20 01:27:00,
2013-05-19 21:32:00,58.2,58.2,30.20,SE,127,0.0,25.8,100,3.97,,,0.53,VWS V13.01,2013-05-20 01:32:00,
2013-05-19 21:37:00,58.3,58.3,30.20,SE,127,0.0,25.8,100,3.97,,,0.53,VWS V13.01,2013-05-20 01:37:00,
2013-05-19 21:42:00,58.2,58.2,30.20,SE,127,0.0,25.8,100,3.97,,,0.53,VWS V13.01,2013-05-20 01:42:00,
2013-05-19 21:47:00,58.4,58.4,30.20,SE,127,0.0,25.8,100,3.97,,,0.53,VWS V13.01,2013-05-20 01:47:00,
2013-05-19 21:52:00,58.4,58.4,30.20,SE,127,0.0,25.8,100,3.97,,,0.53,VWS V13.01,2013-05-20 01:52:00,
2013-05-19 21:57:00,58.6,58.6,30.21,SE,127,0.0,25.8,100,3.97,,,0.53,VWS V13.01,2013-05-20 01:57:00,
2013-05-19 22:02:00,58.5,58.5,30.21,SE,127,0.0,25.8,100,3.97,,,0.53,VWS V13.01,2013-05-20 02:02:00,
2013-05-19 22:07:00,58.8,58.8,30.21,SE,127,0.0,25.8,100,3.97,,,0.53,VWS V13.01,2013-05-20 02:07:00,
2013-05-19 22:12:00,58.9,58.9,30.21,SE,127,0.0,25.8,100,3.97,,,0.53,VWS V13.01,2013-05-20 02:12:00,
2013-05-19 22:17:00,59.0,59.0,30.21,SE,127,0.0,25.8,100,3.97,,,0.53,VWS V13.01,2013-05-20 02:17:00,
2013-05-19 22:22:00,59.2,59.2,30.21,SE,127,0.0,25.8,100,3.97,,,0.53,VWS V13.01,2013-05-20 02:22:00,
2013-05-19 22:27:00,59.0,59.0,30.21,SSE,159,0.0,25.8,100,3.97,,,0.53,VWS V13.01,2013-05-20 02:27:00,
2013-05-19 22:32:00,59.1,59.1,30.21,SSE,159,0.0,25.8,100,3.97,,,0.53,VWS V13.01,2013-05-20 02:32:00,
2013-05-19 22:37:00,59.2,59.2,30.21,SSE,159,0.0,25.8,100,3.97,,,0.53,VWS V13.01,2013-05-20 02:37:00,
2013-05-19 22:42:00,59.1,59.1,30.21,SSE,159,0.0,25.8,100,3.97,,,0.53,VWS V13.01,2013-05-20 02:42:00,
2013-05-19 22:47:00,59.0,59.0,30.21,SSE,159,0.0,25.8,100,3.97,,,0.53,VWS V13.01,2013-05-20 02:47:00,
2013-05-19 22:52:00,59.0,59.0,30.21,SSE,159,0.0,25.8,100,3.97,,,0.53,VWS V13.01,2013-05-20 02:52:00,
2013-05-19 22:57:00,59.3,59.3,30.21,SSE,159,0.0,25.8,100,3.97,,,0.53,VWS V13.01,2013-05-20 02:57:00,
2013-05-19 23:02:00,59.2,59.2,30.21,SSE,159,0.0,25.8,100,3.97,,,0.53,VWS V13.01,2013-05-20 03:02:00,
2013-05-19 23:07:00,59.2,59.2,30.21,SSE,159,0.0,25.8,100,3.97,,,0.53,VWS V13.01,2013-05-20 03:07:00,
2013-05-19 23:12:00,59.2,59.2,30.21,SSE,159,0.0,25.8,100,3.97,,,0.53,VWS V13.01,2013-05-20 03:12:00,
2013-05-19 23:17:00,59.4,59.4,30.21,SSE,159,0.0,25.8,100,3.97,,,0.53,VWS V13.01,2013-05-20 03:17:00,
2013-05-19 23:22:00,59.4,59.4,30.21,SSE,159,0.0,25.8,100,3.97,,,0.53,VWS V13.01,2013-05-20 03:22:00,
2013-05-19 23:27:00,59.5,59.5,30.21,SSE,159,0.0,25.8,100,3.97,,,0.53,VWS V13.01,2013-05-20 03:27:00,
2013-05-19 23:32:00,59.3,59.3,30.21,SSE,159,0.0,25.8,100,3.97,,,0.53,VWS V13.01,2013-05-20 03:32:00,
2013-05-19 23:37:00,59.5,59.5,30.21,SSE,159,0.0,25.8,100,3.97,,,0.53,VWS V13.01,2013-05-20 03:37:00,
2013-05-19 23:42:00,59.4,59.4,30.20,SSE,159,0.0,25.8,100,3.97,,,0.53,VWS V13.01,2013-05-20 03:42:00,
2013-05-19 23:47:00,59.5,59.5,30.20,SSE,159,0.0,25.8,100,3.97,,,0.53,VWS V13.01,2013-05-20 03:47:00,
2013-05-19 23:52:00,59.4,59.4,30.21,SSE,159,0.0,25.8,100,3.97,,,0.53,VWS V13.01,2013-05-20 03:52:00,
2013-05-19 23:57:00,59.3,59.3,30.21,SSE,159,0.0,25.8,100,3.97,,,0.53,VWS V13.01,2013-05-20 03:57:00,